#timestamp,LO_Frequency,Hit,StdDev 
1533988815.5,286047000.4,N
1533988835.4,286047000.3,N
1533988855.2,286047001.1,N
1533988875.0,286047001.1,N
1533988876.0,286047001.1,N
1533988895.8,286047000.5,N
1533988915.6,286047002.8,Y
1533988935.5,286047000.5,P
1533988955.3,286047002.7,P
1533988975.1,286047000.4,N
1533988995.9,286046999.9,N
1533989015.7,286046999.7,N
1533989035.6,286047000.1,N
1533989055.4,286046999.8,N
1533989075.2,286046999.7,N
1533989095.1,286046999.8,N
1533989096.0,286046999.8,N
1533989115.8,286047002.8,Y
1533989135.6,286047000.9,P
1533989155.5,286047000.1,N
1533989175.3,286046999.7,N
1533989195.1,286047000.2,N
1533989215.9,286046999.7,N
1533989235.7,286046999.7,N
1533989255.6,286046999.9,N
1533989275.4,286047000.0,N
1533989295.2,286047002.8,Y
1533989315.1,286047002.8,P
1533989316.0,286047002.8,N
1533989335.8,286046999.8,N
1533989355.7,286047002.6,N
1533989375.5,286047000.3,N
1533989395.3,286046999.9,N
1533989415.2,286047002.3,N
1533989435.9,286046999.7,N
1533989455.7,286047002.4,N
1533989475.6,286046999.9,N
1533989525.4,286046999.8,E
1533989535.4,286047002.8,N
1533989555.2,286047002.6,P
1533989575.0,286047002.0,P
1533989575.9,286047002.0,Y
1533989595.8,286047000.7,P
1533989615.6,286047000.9,N
1533989635.5,286047000.8,N
1533989655.3,286047000.3,N
1533989675.1,286047000.4,N
1533989695.9,286047000.4,N
1533989715.7,286047000.3,N
1533989735.5,286046999.8,N
1533989755.4,286047002.7,Y
1533989775.2,286046999.9,P
1533989795.1,286046999.9,N
1533989796.0,286046999.9,N
1533989815.8,286047000.1,N
1533989835.6,286047000.2,N
1533989855.6,286047000.1,N
1533989875.5,286047000.2,N
1533989895.3,286046999.7,N
1533989915.1,286046999.9,N
1533989935.9,286047000.0,N
1533989955.7,286047002.8,Y
1533989975.6,286047000.2,P
1533989995.4,286046999.7,P
1533990015.2,286047000.2,N
1533990035.1,286047001.2,Y
1533990036.0,286047001.2,P
1533990055.8,286046996.6,P
1533990075.7,286046994.9,N
1533990095.5,286046997.6,N
1533990115.3,286046997.6,N
1533990135.2,286046995.2,N
1533990155.9,286046997.8,N
1533990175.7,286046997.1,N
1533990195.6,286046996.7,N
1533990215.4,286046994.9,N
1533990235.2,286046995.3,N
1533990255.1,286046997.5,N
1533990256.0,286046997.5,N
1533990275.8,286046995.0,N
1533990295.7,286046995.3,N
1533990315.5,286046995.7,N
1533990335.3,286046996.2,N
1533990355.2,286046995.8,N
1533990375.0,286046995.0,Y
1533990375.9,286046995.0,P
1533990395.8,286046998.7,N
1533990415.6,286046998.7,N
1533990435.4,286046998.3,N
1533990455.3,286046998.9,N
1533990475.1,286046999.0,N
1533990495.8,286046998.2,N
1533990515.7,286046998.1,N
1533990535.5,286046998.5,N
1533990555.4,286046999.2,N
1533990575.2,286046999.6,N
1533990595.0,286046999.1,N
1533990595.9,286046999.1,N
1533990615.8,286046998.2,N
1533990635.6,286046998.1,N
1533990655.4,286046998.6,N
1533990675.3,286046999.0,N
1533990695.1,286046999.1,N
1533990715.9,286046999.2,N
1533990735.7,286046999.3,N
1533990755.5,286046999.4,N
1533990775.4,286046999.6,N
1533990795.2,286046999.2,N
1533990815.0,286046999.0,N
1533990815.9,286046999.0,N
1533990835.8,286046999.1,N
1533990855.6,286046997.0,Y
1533990875.5,286046996.5,P
1533990895.3,286046999.5,N
1533990915.1,286046999.3,N
1533990935.9,286046999.6,N
1533990955.7,286046996.6,N
1533990975.5,286046999.0,N
1533990995.4,286046998.1,N
1533991015.2,286047000.8,N
1533991035.1,286046999.3,N
1533991036.0,286046999.3,N
1533991055.8,286046998.8,N
1533991075.6,286046999.5,N
1533991095.5,286046999.0,N
1533991115.3,286046998.9,N
1533991135.1,286046998.8,N
1533991155.9,286046999.5,N
1533991175.7,286046996.9,Y
1533991195.6,286046998.2,P
1533991215.4,286046999.0,N
1533991235.2,286046998.8,P
1533991255.1,286046998.3,Y
1533991256.0,286046998.3,P
1533991275.8,286047000.2,N
1533991295.7,286046999.9,N
1533991315.5,286047000.1,N
1533991335.3,286047000.2,N
1533991355.2,286047000.9,N
1533991375.0,286047001.1,N
1533991375.9,286047001.1,N
1533991395.7,286047001.0,N
1533991415.6,286047001.2,N
1533991435.4,286046998.2,N
1533991455.3,286046998.6,N
1533991475.1,286046998.1,N
1533991476.0,286046998.1,N
1533991495.8,286046998.7,N
1533991515.7,286046998.8,N
1533991535.5,286046999.1,N
1533991555.3,286046999.2,N
1533991575.2,286046998.6,N
1533991595.0,286046999.2,N
1533991595.9,286046999.2,N
1533991615.8,286046996.5,Y
1533991635.6,286046999.4,P
1533991655.5,286046997.0,P
1533991675.3,286046999.2,N
1533991695.1,286046999.2,N
1533991715.9,286047001.2,N
1533991735.7,286046998.2,N
1533991755.5,286046998.3,N
1533991775.4,286046998.6,N
1533991795.2,286046998.9,N
1533991815.1,286046999.2,N
1533991816.0,286046999.2,N
1533991835.8,286046996.7,Y
1533991855.6,286046998.8,P
1533991875.5,286046999.4,P
1533991895.3,286046999.6,N
1533991915.2,286046996.9,Y
1533991935.9,286046999.4,P
1533991955.7,286046999.6,P
1533991975.6,286046996.9,P
1533991995.4,286046997.5,N
1533992015.2,286046997.0,N
1533992035.1,286046996.7,N
1533992036.0,286046996.7,N
1533992055.8,286046999.4,N
1533992075.7,286046997.8,N
1533992095.5,286046997.4,N
1533992115.3,286046996.8,N
1533992135.2,286046997.1,N
1533992155.9,286046996.6,Y
1533992175.7,286047001.0,P
1533992195.6,286047000.6,N
1533992215.4,286047000.3,N
1533992235.2,286047000.8,N
1533992255.1,286046998.3,N
1533992256.0,286046998.3,N
1533992275.8,286047000.8,N
1533992295.7,286047001.1,N
1533992315.5,286047001.2,N
1533992335.3,286046996.6,N
1533992355.2,286046999.0,N
1533992375.0,286046998.4,N
1533992375.9,286046998.4,N
1533992395.8,286046998.9,N
